User: anonymous   Login
Location: Castelbiague
(43.0361°N, 0.9246°E)
Time: 21:04:30
(UTC+00:00)
Language:

In-Cosmos 22 - Orbit

View from above orbital plane
View from above orbital plane
View from above satellite
View from above satellite

Ground track
Ground track

The orbit data is extracted from the following two-line orbital elements,

1 12645U 81075A   21271.28519192  .00000025  00000-0  55105-5 0  9997
2 12645  81.2147 113.3573 0064527 110.5980 250.2133 14.18401970 75760
Epoch (UTC): 28 September 2021 06:50:40
Eccentricity: 0.0064527
inclination: 81.2147°
perigee height: 784 km
apogee height: 877 km
right ascension of ascending node: 113.3573°
argument of perigee: 110.5980°
revolutions per day: 14.18401970
mean anomaly at epoch: 250.2133°
orbit number at epoch: 7576

The dashed part of the orbit path shows where the satellite is in the earth's shadow,  

DLR